[[{"header":{"parameterUnit":"m.s-1","parameterCategory":1,"la1":30.2991,"la2":30.254,"lo1":-89.0895,"lo2":-89.0444,"dy":0.0017,"dx":0.0017,"nx":28,"ny":28,"refTime":"2025-07-25T03:00:00:Z","depth":0,"parameterNumber":2,"parameterNumberName":"U-component_of_WINDS"},"data":[0,0,0,0,0,0,0,0,0,0,0,0,0,0,0,0,0,0,0,0,0,0,0,0,0,0,0,0,0,0,0,0,0,0,0,0,0,0,0,0,0,0,0,0,0,0,0,0,0,0,0,0,0,0,0,0,0,0,-2.1296,-2.1296,0,-2.1327,-2.1327,-2.1327,-2.1323,-2.1323,-2.1322,-2.1322,-2.1352,-2.1354,-2.1355,0,0,0,0,0,0,0,0,0,0,0,0,0,-2.1232,-2.1233,-2.1296,-2.1296,-2.1297,-2.1327,-2.1327,-2.1328,-2.1324,-2.1323,-2.1322,-2.1322,-2.1352,-2.1354,-2.1355,0,0,0,0,0,0,0,0,0,0,0,0,0,-2.1261,-2.1233,-2.1296,-2.1298,-2.1299,-2.1327,-2.1327,-2.1328,-2.1324,-2.1323,-2.1322,-2.1321,-2.1352,-2.1353,-2.1355,-2.1382,0,0,-2.1361,-2.1362,0,0,0,0,0,0,0,0,-2.1259,-2.1263,-2.1298,-2.1298,-2.1299,-2.132,-2.1316,-2.1346,-2.1324,-2.1314,-2.1322,-2.1321,-2.1342,-2.1345,-2.1352,-2.1384,-2.1385,-2.1361,-2.1363,-2.1363,-2.1364,0,0,0,0,0,0,0,-2.1257,-2.1262,-2.1308,-2.1298,-2.1299,-2.1297,-2.1301,-2.1321,-2.1332,-2.1315,-2.1315,-2.1319,-2.1343,-2.1351,-2.1353,-2.1386,-2.1361,-2.1363,-2.1364,-2.1365,-2.1439,-2.144,0,0,0,0,0,0,-2.1255,-2.126,-2.1307,-2.1309,-2.1277,-2.1299,-2.1303,-2.1314,-2.1332,-2.1334,-2.1319,-2.1318,-2.1348,-2.1351,-2.1354,-2.1386,-2.1363,-2.1365,-2.1366,-2.1439,-2.144,-2.1441,0,0,0,0,0,0,-2.1253,-2.1259,-2.1306,-2.1284,-2.129,-2.1301,-2.1314,-2.1315,-2.1323,-2.1335,-2.1337,-2.1325,-2.1347,-2.1351,-2.1375,-2.1387,-2.1366,-2.1368,-2.1438,-2.1439,-2.144,-2.1451,0,0,0,0,0,0,-2.1251,-2.1258,-2.1269,-2.1285,-2.1292,-2.1327,-2.1315,-2.1316,-2.1327,-2.1326,-2.1341,-2.1343,-2.1347,-2.1372,-2.1377,-2.1389,-2.1369,-2.1437,-2.1438,-2.144,-2.145,-2.1452,-2.1455,0,0,0,0,0,-2.1249,-2.1271,-2.127,-2.1275,-2.1305,-2.1328,-2.1331,-2.1335,-2.1328,-2.1338,-2.1346,-2.1343,-2.1385,-2.1375,-2.138,-2.1393,-2.1436,-2.1438,-2.144,-2.1448,-2.1452,-2.1455,0,0,0,0,0,0,-2.1256,-2.1273,-2.1272,-2.13,-2.1312,-2.1327,-2.134,-2.1339,-2.1354,-2.1352,-2.1357,-2.136,-2.1384,-2.1391,-2.1379,-2.142,-2.1409,-2.1412,-2.1414,-2.1418,-2.142,-2.1418,-2.1371,0,0,0,0,0,-2.1261,-2.1278,-2.1292,-2.1315,-2.1321,-2.133,-2.134,-2.1342,-2.1355,-2.136,-2.1369,-2.1382,-2.1398,-2.1408,-2.1424,-2.1451,-2.1453,-2.1462,-2.1465,-2.1467,-2.1469,-2.1483,-2.1487,-2.1447,-2.1447,-2.1447,0,0,-2.1271,-2.1283,-2.1293,-2.1317,-2.1327,-2.1344,-2.1334,-2.1353,-2.1365,-2.1363,-2.1386,-2.1393,-2.1407,-2.1432,-2.1444,-2.1439,-2.1481,-2.1469,-2.1471,-2.1472,-2.1485,-2.1489,-2.1493,-2.1448,-2.1448,-2.1447,0,0,-2.1299,-2.1309,-2.1329,-2.1339,-2.1355,-2.136,-2.1365,-2.1379,-2.1384,-2.1407,-2.1405,-2.142,-2.1448,-2.1457,-2.1466,-2.1496,-2.1493,-2.1501,-2.1515,-2.1528,-2.1531,-2.1534,-2.1544,-2.1547,-2.1503,-2.1503,-2.1504,0,-2.1309,-2.1335,-2.1339,-2.1358,-2.1368,-2.1367,-2.1386,-2.1396,-2.1415,-2.1422,-2.1416,-2.1451,-2.146,-2.1487,-2.1494,-2.1502,-2.1506,-2.1499,-2.1531,-2.1533,-2.1536,-2.1545,-2.1549,-2.1504,-2.1504,-2.1504,-2.1504,0,-2.1347,-2.1365,-2.1379,-2.1398,-2.141,-2.1429,-2.1435,-2.1446,-2.1447,-2.1453,-2.1476,-2.1487,-2.1504,-2.1511,-2.1512,-2.1538,-2.1534,-2.153,-2.1519,-2.1541,-2.1549,-2.1553,-2.1505,-2.1505,-2.1505,-2.1505,0,0,-2.138,-2.14,-2.1406,-2.1414,-2.143,-2.1444,-2.1462,-2.1479,-2.1488,-2.1502,-2.1517,-2.154,-2.1536,-2.1545,-2.1547,-2.1559,-2.1581,-2.1553,-2.1553,-2.1557,-2.1609,-2.1612,-2.1616,-2.158,-2.158,-2.1581,-2.1608,0,-2.1408,-2.1442,-2.1445,-2.1475,-2.1491,-2.1489,-2.1505,-2.1517,-2.1522,-2.1536,-2.1542,-2.1559,-2.1552,-2.1558,-2.1569,-2.1576,-2.1591,-2.1574,-2.1593,-2.1594,-2.1589,-2.1621,-2.1625,-2.1649,-2.1611,-2.1612,-2.1612,0,-2.1446,-2.146,-2.1491,-2.1504,-2.1511,-2.1526,-2.1541,-2.1555,-2.1567,-2.157,-2.1581,-2.1581,-2.16,-2.1589,-2.1613,-2.1602,-2.1609,-2.1614,-2.1615,-2.1616,-2.1604,-2.1623,-2.1658,-2.1661,-2.1618,-2.1618,-2.1617,0,-2.1466,-2.1493,-2.1514,-2.1521,-2.1538,-2.1548,-2.1555,-2.1567,-2.1576,-2.159,-2.1596,-2.1611,-2.1619,-2.1631,-2.1635,-2.1627,-2.1659,-2.1649,-2.1662,-2.1661,-2.1668,-2.1668,-2.1704,-2.1674,-2.1674,-2.1674,-2.1674,0,-2.1497,-2.1516,-2.1523,-2.1537,-2.1558,-2.1561,-2.1582,-2.1588,-2.1599,-2.1613,-2.1612,-2.1625,-2.163,-2.1644,-2.1647,-2.1666,-2.167,-2.1673,-2.1673,-2.1673,-2.1672,-2.1677,-2.1676,-2.1675,-2.1675,-2.1675,-2.1675,0,-2.1523,-2.1529,-2.1552,-2.1565,-2.1569,-2.1584,-2.1595,-2.1607,-2.1612,-2.163,-2.1634,-2.1642,-2.1658,-2.1664,-2.1683,-2.1685,-2.1707,-2.1707,-2.1703,-2.1703,-2.1715,-2.1714,-2.1756,-2.1761,-2.1729,-2.1729,-2.1729,0,-2.1542,-2.1556,-2.1571,-2.158,-2.1588,-2.1603,-2.1613,-2.1617,-2.1627,-2.1641,-2.1652,-2.1668,-2.168,-2.1706,-2.1713,-2.1727,-2.1727,-2.174,-2.1729,-2.1727,-2.1726,-2.1725,-2.1726,-2.1742,-2.1743,-2.1743,-2.1743,0,-2.1575,-2.1577,-2.1591,-2.1606,-2.1618,-2.163,-2.1642,-2.1649,-2.1655,-2.1666,-2.1682,-2.1692,-2.1711,-2.1727,-2.1741,-2.1748,-2.1746,-2.1747,-2.175,-2.175,-2.1747,-2.1748,-2.1708,-2.1746,-2.1746,-2.1745,-2.1745,-2.1745,-2.1598,-2.161,-2.1622,-2.1638,-2.1647,-2.1657,-2.1669,-2.1676,-2.1689,-2.1705,-2.1707,-2.1724,-2.1735,-2.1754,-2.1762,-2.1775,-2.1771,-2.1776,-2.1777,-2.1779,-2.1779,-2.1745,-2.1777,-2.1777,-2.1777,-2.1777,-2.1777,0,-2.163,-2.1638,-2.1652,-2.1668,-2.168,-2.1677,-2.169,-2.17,-2.1715,-2.1725,-2.1738,-2.1756,-2.177,-2.1779,-2.1793,-2.1802,-2.1801,-2.1805,-2.1804,-2.1806,-2.1782,-2.1777,-2.1805,-2.1805,-2.1805,-2.1805,-2.1805,-2.1805,-2.1649,-2.1669,-2.1672,-2.1697,-2.1704,-2.1721,-2.1728,-2.1737,-2.1746,-2.1766,-2.1778,-2.1783,-2.1792,-2.1807,-2.182,-2.1822,-2.1827,-2.1831,-2.1832,-2.181,-2.1807,-2.1805,-2.18,-2.1832,-2.1832,-2.1855,-2.1855,-2.1855]},{"header":{"parameterUnit":"m.s-1","parameterCategory":1,"la1":30.2991,"la2":30.254,"lo1":-89.0895,"lo2":-89.0444,"dy":0.0017,"dx":0.0017,"nx":28,"ny":28,"refTime":"2025-07-25T03:00:00:Z","depth":0,"parameterNumber":3,"parameterNumberName":"V-component_of_WINDS"},"data":[0,0,0,0,0,0,0,0,0,0,0,0,0,0,0,0,0,0,0,0,0,0,0,0,0,0,0,0,0,0,0,0,0,0,0,0,0,0,0,0,0,0,0,0,0,0,0,0,0,0,0,0,0,0,0,0,0,0,5.482,5.4822,0,5.5007,5.5009,5.5011,5.4969,5.4965,5.4962,5.4958,5.5145,5.5153,5.5161,0,0,0,0,0,0,0,0,0,0,0,0,0,5.4418,5.4426,5.482,5.4822,5.4824,5.5007,5.5009,5.5012,5.4969,5.4965,5.4961,5.4957,5.5142,5.5152,5.5162,0,0,0,0,0,0,0,0,0,0,0,0,0,5.4598,5.4428,5.4819,5.4825,5.4828,5.5006,5.501,5.5013,5.497,5.4965,5.4959,5.4955,5.5139,5.5151,5.5163,5.5346,0,0,5.5201,5.5206,0,0,0,0,0,0,0,0,5.4587,5.4612,5.4822,5.4825,5.4828,5.4959,5.4936,5.5124,5.4971,5.4916,5.4958,5.4952,5.5087,5.5103,5.515,5.5354,5.5362,5.5202,5.5209,5.5215,5.5218,0,0,0,0,0,0,0,5.4575,5.4604,5.4894,5.4825,5.4829,5.4816,5.4836,5.4972,5.5029,5.492,5.4918,5.4941,5.5087,5.5138,5.5154,5.5365,5.5202,5.5213,5.522,5.5225,5.5726,5.5731,0,0,0,0,0,0,5.4561,5.4594,5.4888,5.4899,5.4692,5.4828,5.485,5.4922,5.5027,5.5038,5.4945,5.4938,5.5119,5.5139,5.516,5.5379,5.5215,5.5226,5.5233,5.572,5.5727,5.5733,0,0,0,0,0,0,5.4552,5.4587,5.488,5.4746,5.4782,5.484,5.4922,5.4929,5.4979,5.5046,5.5055,5.4987,5.5116,5.5143,5.53,5.5385,5.5232,5.5243,5.5713,5.5722,5.573,5.582,0,0,0,0,0,0,5.4541,5.4585,5.4657,5.4748,5.479,5.5019,5.4928,5.4936,5.5002,5.4994,5.5087,5.5098,5.5114,5.5281,5.5312,5.5399,5.5253,5.5706,5.5717,5.5727,5.5809,5.583,5.5848,0,0,0,0,0,5.4527,5.4674,5.466,5.4696,5.4881,5.5024,5.5047,5.5065,5.5009,5.508,5.5122,5.5095,5.5371,5.5298,5.5332,5.5424,5.57,5.5714,5.5727,5.58,5.5826,5.5848,0,0,0,0,0,0,5.4589,5.4686,5.4672,5.4854,5.4931,5.5016,5.5107,5.5092,5.5186,5.5174,5.519,5.5211,5.5371,5.5413,5.533,5.5605,5.5527,5.5548,5.5572,5.5597,5.5616,5.5602,5.5263,0,0,0,0,0,5.4625,5.4735,5.4812,5.4964,5.5004,5.5049,5.5112,5.5119,5.5199,5.5231,5.5284,5.5362,5.5465,5.5533,5.5633,5.5815,5.5833,5.5895,5.5915,5.5931,5.5948,5.6045,5.6072,5.5777,5.5777,5.5776,0,0,5.4698,5.4764,5.4832,5.4979,5.5039,5.515,5.5077,5.5198,5.528,5.5248,5.54,5.5442,5.5529,5.5699,5.5776,5.5739,5.6034,5.5948,5.596,5.5968,5.6061,5.6089,5.6114,5.5786,5.5784,5.5783,0,0,5.4888,5.495,5.5083,5.5145,5.5238,5.5267,5.5299,5.5387,5.5414,5.5566,5.5544,5.5641,5.582,5.5882,5.5937,5.6149,5.6126,5.6181,5.6282,5.6377,5.64,5.642,5.6494,5.652,5.6198,5.6198,5.6198,0,5.4966,5.5135,5.5152,5.5276,5.5339,5.5317,5.545,5.5509,5.5629,5.5672,5.563,5.5853,5.591,5.6093,5.6144,5.619,5.6225,5.617,5.6395,5.6416,5.6436,5.6506,5.6533,5.6204,5.6203,5.6203,5.6202,0,5.5226,5.5343,5.5438,5.5556,5.5631,5.5758,5.5792,5.5865,5.5865,5.5897,5.6051,5.6118,5.623,5.6274,5.6275,5.6457,5.643,5.6392,5.6313,5.647,5.6535,5.6562,5.6212,5.621,5.6208,5.6207,0,0,5.5461,5.5586,5.562,5.5672,5.5773,5.5863,5.5987,5.6098,5.6159,5.6242,5.6346,5.6497,5.6462,5.6524,5.6531,5.6614,5.6774,5.6565,5.6567,5.66,5.6976,5.7003,5.7034,5.676,5.6765,5.677,5.6968,0,5.5658,5.588,5.5899,5.6097,5.6204,5.6184,5.6292,5.6364,5.6397,5.6491,5.6526,5.6633,5.6579,5.6616,5.6697,5.6738,5.685,5.6724,5.6854,5.6858,5.6832,5.7069,5.7099,5.7283,5.6994,5.6998,5.7001,0,5.5918,5.601,5.622,5.6304,5.6349,5.6446,5.6548,5.6638,5.6718,5.6736,5.6806,5.6801,5.6926,5.6845,5.7016,5.693,5.6984,5.7012,5.7019,5.7031,5.6938,5.7085,5.7342,5.7369,5.7043,5.7039,5.7036,0,5.6066,5.6242,5.639,5.6435,5.6537,5.6605,5.6651,5.6726,5.679,5.6878,5.692,5.7021,5.7076,5.7153,5.7175,5.7114,5.7345,5.7265,5.7361,5.7361,5.741,5.7406,5.7678,5.7448,5.7447,5.7447,5.7446,0,5.6284,5.6412,5.6457,5.6548,5.669,5.6709,5.6849,5.689,5.6956,5.7052,5.7041,5.7131,5.7155,5.7249,5.7267,5.7405,5.743,5.7446,5.7449,5.7447,5.7444,5.7481,5.7468,5.7454,5.7453,5.7451,5.745,0,5.6473,5.6508,5.6668,5.6751,5.6774,5.6876,5.6945,5.7031,5.7062,5.7184,5.7214,5.7262,5.7372,5.7401,5.7533,5.7544,5.7706,5.7698,5.768,5.7679,5.7772,5.7763,5.8076,5.8117,5.7861,5.7864,5.7866,0,5.6609,5.6707,5.6801,5.6865,5.6914,5.7018,5.7083,5.7104,5.7173,5.727,5.7344,5.7452,5.754,5.7716,5.7761,5.7861,5.7854,5.7957,5.7869,5.7862,5.7853,5.7847,5.7855,5.7973,5.7976,5.7978,5.798,0,5.6846,5.6858,5.6954,5.7057,5.7136,5.7217,5.7294,5.7347,5.7379,5.7456,5.7569,5.7637,5.7771,5.7878,5.7978,5.8022,5.8006,5.8007,5.8034,5.8032,5.8017,5.8024,5.7723,5.8,5.7998,5.7996,5.7995,5.7994,5.7011,5.7097,5.7176,5.7283,5.7343,5.7416,5.75,5.7541,5.7636,5.7748,5.7754,5.7876,5.795,5.8084,5.8133,5.8227,5.8196,5.8236,5.8246,5.8255,5.8262,5.8003,5.8245,5.8245,5.8244,5.8244,5.8244,0,5.7246,5.7295,5.7394,5.7503,5.7586,5.7565,5.7649,5.772,5.7827,5.7899,5.7986,5.8114,5.8217,5.8271,5.8372,5.8437,5.8432,5.8463,5.8458,5.8468,5.8285,5.825,5.8465,5.8465,5.8465,5.8465,5.8465,5.8465,5.7378,5.7521,5.7542,5.7714,5.7762,5.7882,5.7932,5.7998,5.8055,5.8199,5.8285,5.832,5.8383,5.849,5.8582,5.8595,5.8632,5.8667,5.8676,5.8503,5.8481,5.8459,5.8427,5.8675,5.8676,5.885,5.8852,5.8853]}]]